Overview Statistics Trail Chart Weather Telemetry Raw packets
 

This is the latest recevied weather packets stored in our database for station/object WA6OOO. If no packets are shown the sender has not sent any weather packets the latest 10 day(s).

<< 98 99 100 101 102 103 104 >>
Time Temp. Humidity Pressure Rain* Wind** Luminosity Snow
1787938264 29.44° C 63% 1015.9 hPa 0 mm - 508 W/m² -
1787937963 29.44° C 63% 1015.8 hPa 0 mm - 508 W/m² -
1787937659 29.44° C 63% 1015.9 hPa 0 mm - 508 W/m² -
1787937355 29.44° C 63% 1015.8 hPa 0 mm - 508 W/m² -
1787937051 28.89° C 64% 1015.9 hPa 0 mm - 502 W/m² -
1787936750 28.89° C 66% 1015.8 hPa 0 mm - 475 W/m² -
1787936445 28.89° C 65% 1015.7 hPa 0 mm - 479 W/m² -
1787936144 28.89° C 67% 1015.7 hPa 0 mm - 458 W/m² -
1787935840 28.89° C 65% 1015.6 hPa 0 mm - 448 W/m² -
1787935536 28.89° C 67% 1015.6 hPa 0 mm - 430 W/m² -
1787935232 28.33° C 66% 1015.6 hPa 0 mm - 421 W/m² -
1787934927 28.89° C 67% 1015.6 hPa 0 mm - 410 W/m² -
1787934622 28.33° C 68% 1015.5 hPa 0 mm - 398 W/m² -
1787934321 28.33° C 69% 1015.4 hPa 0 mm - 367 W/m² -
1787934021 27.78° C 69% 1015.4 hPa 0 mm - 347 W/m² -
1787933721 27.78° C 71% 1015.4 hPa 0 mm - 358 W/m² -
1787933427 27.78° C 70% 1015.4 hPa 0 mm - 337 W/m² -
1787933115 26.67° C 73% 1015.4 hPa 0 mm - 318 W/m² -
1787932815 26.67° C 74% 1015.3 hPa 0 mm - 279 W/m² -
1787932509 26.11° C 74% 1015.5 hPa 0 mm - 238 W/m² -
1787932204 26.67° C 75% 1015.5 hPa 0 mm - 218 W/m² -
1787931902 26.67° C 72% 1015.6 hPa 0 mm - 147 W/m² -
1787931597 26.11° C 75% 1015.5 hPa 0 mm - 243 W/m² -
1787931292 25.56° C 77% 1015.5 hPa 0 mm - 231 W/m² -
1787930991 25° C 78% 1015.3 hPa 0 mm - 184 W/m² -

* Rain latest hour (hover to see other rain measurements)
** Current wind speed in m/s (hover to see current wind gust speed)